K7JGC-9 Weather Reports


time (UTC)temp
C
wind
direction
speed
KPH
gust
KPH
rain 1hr
cm
rain 24hr
cm
rain mn
cm
humidity
%
barometer
mb
20260506002131 17 322 0.0 0.0 0.00 0.00 0.00 74 1016.1
20260505235131 17 324 0.0 0.0 0.00 0.00 0.00 69 1016.3
20260505232131 17 328 0.0 0.0 0.00 0.00 0.00 70 1016.6
20260505225131 18 326 0.0 0.0 0.00 0.00 0.00 69 1016.7
20260505222129 18 321 0.0 0.0 0.00 0.00 0.00 67 1016.7
20260505215125 18 331 0.0 0.0 0.00 0.00 0.00 68 1016.8
20260505212124 17 331 0.0 0.0 0.00 0.00 0.00 70 1016.9
20260505205125 17 335 0.0 0.0 0.00 0.00 0.00 70 1017.1
20260505202122 17 341 0.0 0.0 0.00 0.00 0.00 73 1017.2
20260505195123 16 322 0.0 0.0 0.00 0.00 0.00 73 1017.4
20260505192123 16 357 0.0 0.0 0.00 0.00 0.00 75 1017.5
20260505185120 15 337 0.0 0.0 0.00 0.00 0.00 77 1017.5
20260505182118 15 319 0.0 0.0 0.00 0.00 0.00 79 1017.7
20260505175115 15 323 0.0 0.0 0.00 0.00 0.00 78 1017.4
20260505172114 15 326 0.0 0.0 0.00 0.00 0.00 81 1017.3
20260505165114 15 331 0.0 0.0 0.00 0.00 0.00 82 1017.0
20260505162109 14 326 0.0 0.0 0.00 0.00 0.00 81 1016.9
20260505152104 13 315 0.0 0.0 0.00 0.00 0.00 85 1016.8
20260505122050 12 322 0.0 0.0 0.00 0.00 0.00 85 1015.7
20260505115045 12 322 0.0 0.0 0.00 0.00 0.00 83 1015.7
20260505112044 13 315 0.0 0.0 0.00 0.00 0.00 84 1015.6
20260505102039 13 335 0.0 0.0 0.00 0.00 0.00 84 1015.0
20260505095037 13 336 0.0 0.0 0.00 0.00 0.00 84 1015.2
20260505092037 13 335 0.0 0.0 0.00 0.00 0.00 84 1015.0
20260505085033 13 334 0.0 0.0 0.00 0.00 0.00 84 1014.5
20260505082033 13 335 0.0 0.0 0.00 0.00 0.00 82 1014.5
20260505075030 13 323 0.0 0.0 0.00 0.00 0.00 81 1014.3
20260505072029 14 327 0.0 0.0 0.00 0.00 0.00 81 1013.9
20260505065025 14 327 0.0 0.0 0.00 0.00 0.00 80 1013.6
20260505062025 15 327 0.0 0.0 0.00 0.00 0.00 79 1013.2
20260505055024 16 327 0.0 0.0 0.00 0.00 0.00 77 1013.0
20260505052019 17 327 0.0 0.0 0.00 0.00 0.00 73 1012.8
20260505035010 20 323 0.0 0.0 0.00 0.00 0.00 72 1011.1
20260505032010 20 327 0.0 0.0 0.00 0.00 0.00 71 1010.8
20260505025010 20 326 0.0 0.0 0.00 0.00 0.00 69 1010.5
20260505022010 21 327 0.0 0.0 0.00 0.00 0.00 68 1010.4
20260505015006 22 323 0.0 0.0 0.00 0.00 0.00 65 1010.4
20260505012000 22 332 0.0 0.0 0.00 0.00 0.00 63 1010.6
20260505004957 23 330 0.0 0.0 0.00 0.00 0.00 62 1011.0